Tracking 27402 objects as of 3-Jun-2023
HD Live streaming from Space Station
objects crossing your sky now

COSMOS 1761

Track COSMOS 1761 now!
COSMOS 1761 is classified as:


NORAD ID: 16849
Int'l Code: 1986-050A
Perigee: 4,759.0 km
Apogee: 35,639.0 km
Inclination: 69.6 °
Period: 718.4 minutes
Semi major axis: 26569 km
RCS: 12.1379 m2 (large)
Launch date: July 5, 1986
Source: Commonwealth of Independent States (former USSR) (CIS)
Launch site: PLESETSK MISSILE AND SPACE COMPLEX (PKMTR)
Your satellite tracking list
Your tracking list is empty




NASA's NSSDC Master Catalog

Two Line Element Set (TLE):
1 16849U 86050A   23152.86016895 -.00000692  00000-0  00000-0 0  9991
2 16849  69.6444 103.1871 5811079  33.5581  91.3423  2.00454510270305
Source of the keplerian elements: AFSPC